Regional Weather Roundup
Issued by NWS

Home | Current Version | Previous Version | Graphics & Text | Print | Product List | Glossary On
Versions: 1 2 3 4 5 6 7 8 9 10 11 12 13 14 15 16 17 18 19 20 21 22 23 24 25 26 27
000
ASUS45 KSLC 280110
RWRUT

UTAH REGIONAL WEATHER ROUNDUP
NATIONAL WEATHER SERVICE SALT LAKE CITY UT
700 PM MDT WED JUL 27 2016

UTZ001>011-023>025-280200-

NORTHERN UTAH

CITY           SKY/WX    TMP DP  RH WIND       PRES   REMARKS
BRIGHAM CITY     N/A     96  20   6 S9        30.04F
HILL AFB       SUNNY     95  30  10 SW3       30.10F
LOGAN          SUNNY     95  31  10 SW3       30.05F
OGDEN          SUNNY     95  28   9 SW7       30.05F
PROVO AIRPORT  SUNNY     97  37  12 NW9       30.06F HX  92
SALT LAKE CITY SUNNY     99  27   8 CALM      30.03F HX  92
VERNAL         SUNNY     96  31  10 E7        30.07F HX  90
WENDOVER       SUNNY     99  34  10 SE7       30.02F HX  93
HEBER CITY     SUNNY     93  23   8 N7        30.15F

$$

UTZ012>022-026-027-280200-

SOUTHERN/CENTRAL UTAH

CITY           SKY/WX    TMP DP  RH WIND       PRES   REMARKS
BLANDING       SUNNY     94  29  10 N10       30.21S
BRYCE CANYON     N/A     91  22   8 N10       30.30F
CEDAR CITY     MOSUNNY   96  21   6 E5        30.11F
DELTA          SUNNY     99  23   6 CALM      30.05F HX  92
MILFORD        SUNNY    101  20   5 N3        30.05F HX  93
MOAB/CYNLANDS  SUNNY    101  27   7 CALM      29.98F HX  94
PRICE          SUNNY     96  23   7 NW12      30.15F HX  90
ST GEORGE      CLEAR    109  41  10 W8        29.85F HX 103

$$

REGIONAL REPORTS     COLORADO/ARIZONA

CITY           SKY/WX    TMP DP  RH WIND       PRES   REMARKS
CRAIG, CO      SUNNY     92  13   5 N8        30.17F
GRAND JUNCTION SUNNY     98  31   9 W9        30.02F HX  92
RIFLE          SUNNY     96  24   7 NW9       30.10F HX  90
MONTROSE       SUNNY     93  36  13 W9        30.14F
CORTEZ         SUNNY     94  32  11 N10       30.12F
PAGE, AZ       SUNNY    104  27   6 CALM      29.96F HX  97
GRAND CANYON   SUNNY     93  34  12 NE10      30.22F
KINGMAN        CLOUDY    93  49  22 S8        29.96F HX  90
FLAGSTAFF      MOSUNNY   88  28  11 N7        30.25S

$$

REGIONAL REPORTS    NEVADA/IDAHO/WYOMING

CITY           SKY/WX    TMP DP  RH WIND       PRES   REMARKS
LAS VEGAS, NV    N/A    112  39   8 S7        29.75F HX 105
ELY            SUNNY     95  20   6 S8        30.16F
ELKO           MOSUNNY   99  13   4 W14G22    30.08F HX  91
POCATELLO, ID  SUNNY     94  32  11 W9        30.05F
BURLEY         SUNNY     93  43  17 NE3       30.00F
EVANSTON, WY   SUNNY     85  20   9 NW8       30.30F
ROCK SPRINGS   SUNNY     88  14   6 W17       30.22F
KEMMERER         N/A    N/A N/A N/A NW13      30.31S

$$




USA.gov is the U.S. government's official web portal to all federal, state and local government web resources and services.